This demonstration page uses our WeatherBlox Daily Observations layout. Learn more.

Left ArrowRight Arrow

39.08367, -84.50855

Hourly Observations for April 21, 2015

Temp ( °F °C ) Dew Point ( °F °C ) Humidity (%) Winds ( mph kmh ) Pressure ( in mb ) Visibility ( mi km ) Precip ( " mm )
12:53 am 00:53 Cloudy 49 9.4 36 2.2 61 61 WSW 10 17 29.80 1009 10 16 N/A
1:53 am 01:53 Mostly Cloudy 48 8.9 35 1.7 61 61 SW 10 17 29.82 1010 10 16 N/A
2:53 am 02:53 Mostly Cloudy 45 7.2 36 2.2 71 71 SW 8 13 29.82 1010 10 16 N/A
3:53 am 03:53 Cloudy 46 7.8 37 2.8 71 71 W 5 7 29.82 1010 10 16 N/A
4:53 am 04:53 Clear 43 6.1 38 3.3 82 82 S 8 13 29.82 1010 10 16 N/A
5:53 am 05:53 Clear 41 5 37 2.8 86 86 SSW 8 13 29.82 1010 10 16 N/A
6:53 am 06:53 Sunny 41 5 35 1.7 79 79 SW 6 9 29.82 1010 10 16 N/A
7:53 am 07:53 Sunny 45 7.2 36 2.2 71 71 SW 13 20 29.82 1010 10 16 N/A
8:53 am 08:53 Sunny 49 9.4 35 1.7 59 59 SSW 14 22 29.82 1010 10 16 N/A
9:53 am 09:53 Sunny 53 11.7 34 1.1 48 48 SW 20 31 29.81 1010 10 16 N/A
10:53 am 10:53 Sunny 57 13.9 35 1.7 44 44 WSW 20 31 29.81 1010 10 16 N/A
11:53 am 11:53 Sunny 59 15 31 -0.6 35 35 WSW 28 44 29.80 1009 10 16 N/A
12:53 pm 12:53 Mostly Cloudy 58 14.4 27 -2.8 31 31 W 18 30 29.79 1009 10 16 N/A
1:53 pm 13:53 Mostly Cloudy 60 15.6 30 -1.1 32 32 WSW 22 35 29.78 1009 10 16 N/A
2:53 pm 14:53 Mostly Cloudy 60 15.6 30 -1.1 32 32 WSW 18 30 29.78 1009 10 16 N/A
3:53 pm 15:53 Partly Cloudy 63 17.2 28 -2.2 27 27 WSW 23 37 29.75 1008 10 16 N/A
4:53 pm 16:53 Mostly Sunny 63 17.2 28 -2.2 27 27 WSW 17 28 29.75 1007 10 16 N/A
5:53 pm 17:53 Mostly Sunny 62 16.7 29 -1.7 29 29 WSW 18 30 29.75 1007 10 16 N/A
6:53 pm 18:53 Partly Cloudy 61 16.1 24 -4.4 24 24 WSW 18 30 29.75 1008 10 16 N/A
7:53 pm 19:53 Partly Cloudy 59 15 28 -2.2 31 31 WSW 17 28 29.75 1008 10 16 N/A
8:53 pm 20:53 Clear 57 13.9 32 undefined 39 39 SW 13 20 29.75 1008 10 16 N/A
9:53 pm 21:53 Clear 51 10.6 36 2.2 56 56 SSW 10 17 29.76 1008 10 16 N/A
10:53 pm 22:53 Mostly Clear 52 11.1 36 2.2 55 55 SSW 8 13 29.75 1008 10 16 N/A
11:53 pm 23:53 Cloudy 55 12.8 37 2.8 51 51 SSW 14 22 29.75 1007 10 16 N/A

Powered by AerisWeather